[[{"header":{"parameterUnit":"m.s-1","parameterCategory":1,"la1":30.2991,"la2":30.254,"lo1":-89.0895,"lo2":-89.0444,"dy":0.0017,"dx":0.0017,"nx":28,"ny":28,"refTime":"2024-08-19T21:00:00:Z","depth":0,"parameterNumber":2,"parameterNumberName":"U-component_of_WINDS"},"data":[0,0,0,0,0,0,0,0,0,0,0,0,0,0,0,0,0,0,0,0,0,0,0,0,0,0,0,0,0,0,0,0,0,0,0,0,0,0,0,0,0,0,0,0,0,0,0,0,0,0,0,0,0,0,0,0,0,0,-0.5458,-0.5458,0,-0.5446,-0.5445,-0.5445,-0.5442,-0.5443,-0.5443,-0.5443,-0.543,-0.5429,-0.5429,0,0,0,0,0,0,0,0,0,0,0,0,0,-0.548,-0.548,-0.5459,-0.5458,-0.5458,-0.5446,-0.5445,-0.5445,-0.5442,-0.5443,-0.5443,-0.5443,-0.543,-0.5429,-0.5429,0,0,0,0,0,0,0,0,0,0,0,0,0,-0.5469,-0.548,-0.5459,-0.5455,-0.5455,-0.5446,-0.5445,-0.5445,-0.5442,-0.5443,-0.5443,-0.5443,-0.543,-0.5429,-0.5429,-0.5422,0,0,-0.5427,-0.5426,0,0,0,0,0,0,0,0,-0.547,-0.5469,-0.5456,-0.5455,-0.5455,-0.5446,-0.5448,-0.5437,-0.5442,-0.5447,-0.5443,-0.5443,-0.5435,-0.5434,-0.5431,-0.5421,-0.5421,-0.5427,-0.5426,-0.5426,-0.5426,0,0,0,0,0,0,0,-0.5471,-0.5469,-0.5453,-0.5456,-0.5455,-0.5454,-0.5453,-0.5446,-0.544,-0.5447,-0.5446,-0.5445,-0.5435,-0.5432,-0.5431,-0.542,-0.5427,-0.5426,-0.5426,-0.5425,-0.5403,-0.5403,0,0,0,0,0,0,-0.5472,-0.547,-0.5454,-0.5453,-0.5463,-0.5454,-0.5452,-0.5449,-0.544,-0.5439,-0.5445,-0.5445,-0.5433,-0.5432,-0.543,-0.5421,-0.5426,-0.5425,-0.5425,-0.5403,-0.5403,-0.5403,0,0,0,0,0,0,-0.5473,-0.5471,-0.5454,-0.5461,-0.5459,-0.5453,-0.5449,-0.5448,-0.5445,-0.5439,-0.5438,-0.5443,-0.5433,-0.5431,-0.5424,-0.5421,-0.5425,-0.5424,-0.5404,-0.5403,-0.5403,-0.5404,0,0,0,0,0,0,-0.5473,-0.5471,-0.5469,-0.5461,-0.5459,-0.5448,-0.5449,-0.5448,-0.5444,-0.5444,-0.5437,-0.5436,-0.5433,-0.5425,-0.5423,-0.542,-0.5424,-0.5404,-0.5404,-0.5403,-0.5404,-0.5403,-0.5403,0,0,0,0,0,-0.5474,-0.5469,-0.5468,-0.5467,-0.5456,-0.5448,-0.5447,-0.5443,-0.5444,-0.5441,-0.5437,-0.5436,-0.5421,-0.5424,-0.5422,-0.5419,-0.5404,-0.5404,-0.5403,-0.5404,-0.5403,-0.5403,0,0,0,0,0,0,-0.5477,-0.5469,-0.5467,-0.546,-0.5455,-0.5448,-0.5444,-0.5443,-0.5437,-0.5437,-0.5433,-0.5431,-0.5424,-0.5421,-0.5424,-0.5411,-0.5413,-0.5412,-0.5414,-0.5413,-0.5413,-0.5414,-0.5423,0,0,0,0,0,-0.5477,-0.5471,-0.5464,-0.5459,-0.5456,-0.545,-0.5447,-0.5445,-0.5439,-0.5437,-0.5432,-0.5426,-0.542,-0.5417,-0.5411,-0.5403,-0.5401,-0.54,-0.5399,-0.5399,-0.5398,-0.5393,-0.5393,-0.5402,-0.5402,-0.5402,0,0,-0.5476,-0.5471,-0.5468,-0.5459,-0.5454,-0.5449,-0.5449,-0.5443,-0.5438,-0.5436,-0.5428,-0.5424,-0.5418,-0.541,-0.5406,-0.5407,-0.5395,-0.5398,-0.5398,-0.5398,-0.5393,-0.5392,-0.5391,-0.5401,-0.5401,-0.5401,0,0,-0.5473,-0.5468,-0.5463,-0.5458,-0.5451,-0.5447,-0.5446,-0.5438,-0.5436,-0.5428,-0.5426,-0.542,-0.541,-0.5405,-0.5402,-0.5395,-0.5394,-0.5393,-0.5391,-0.5386,-0.5385,-0.5385,-0.5382,-0.5381,-0.5392,-0.5392,-0.5392,0,-0.5473,-0.5464,-0.546,-0.5454,-0.545,-0.5447,-0.5441,-0.5437,-0.5428,-0.5425,-0.5426,-0.5412,-0.5408,-0.5399,-0.5397,-0.5394,-0.5392,-0.5394,-0.5386,-0.5385,-0.5384,-0.5382,-0.5381,-0.5392,-0.5392,-0.5392,-0.5392,0,-0.5465,-0.5459,-0.5455,-0.5447,-0.5442,-0.5436,-0.5431,-0.5427,-0.5424,-0.542,-0.5412,-0.5406,-0.5399,-0.5396,-0.5394,-0.5386,-0.5387,-0.5387,-0.5388,-0.5384,-0.5381,-0.538,-0.5392,-0.5392,-0.5392,-0.5392,0,0,-0.5464,-0.5452,-0.5451,-0.5447,-0.5438,-0.5433,-0.5427,-0.5419,-0.5416,-0.541,-0.5404,-0.5395,-0.5394,-0.539,-0.5387,-0.5383,-0.5377,-0.5383,-0.5383,-0.5382,-0.5368,-0.5368,-0.5367,-0.5376,-0.5376,-0.5376,-0.5368,0,-0.5459,-0.5448,-0.5443,-0.5434,-0.5428,-0.5424,-0.5418,-0.5412,-0.5408,-0.5402,-0.5398,-0.5391,-0.5391,-0.5388,-0.5384,-0.5379,-0.5374,-0.5379,-0.5371,-0.537,-0.5373,-0.5366,-0.5367,-0.536,-0.5367,-0.5367,-0.5367,0,-0.5453,-0.5446,-0.5436,-0.5427,-0.5425,-0.542,-0.5412,-0.5406,-0.5399,-0.5396,-0.5391,-0.5388,-0.5381,-0.5382,-0.5372,-0.5375,-0.5371,-0.5368,-0.5367,-0.5367,-0.5369,-0.5365,-0.5358,-0.5357,-0.5365,-0.5366,-0.5366,0,-0.5453,-0.5441,-0.5434,-0.543,-0.542,-0.5416,-0.5412,-0.5405,-0.54,-0.5393,-0.539,-0.5382,-0.5378,-0.5372,-0.5367,-0.5369,-0.5357,-0.5358,-0.5355,-0.5355,-0.5353,-0.5353,-0.5345,-0.535,-0.535,-0.535,-0.535,0,-0.5448,-0.5442,-0.5433,-0.5429,-0.5422,-0.5416,-0.5409,-0.5404,-0.5398,-0.5392,-0.5388,-0.5382,-0.5376,-0.5369,-0.5365,-0.5357,-0.5355,-0.5352,-0.5352,-0.5353,-0.5353,-0.5351,-0.5351,-0.5349,-0.535,-0.535,-0.535,0,-0.5447,-0.5441,-0.5433,-0.5423,-0.5421,-0.5416,-0.5408,-0.5403,-0.5398,-0.5391,-0.5388,-0.5381,-0.5373,-0.5367,-0.5357,-0.5354,-0.5345,-0.5344,-0.5348,-0.5347,-0.5344,-0.5344,-0.5334,-0.5333,-0.5338,-0.5338,-0.5338,0,-0.5445,-0.544,-0.543,-0.5426,-0.5421,-0.5414,-0.541,-0.5403,-0.5398,-0.5389,-0.5385,-0.5377,-0.537,-0.5357,-0.5351,-0.5343,-0.5342,-0.5339,-0.5341,-0.5342,-0.5342,-0.5342,-0.5342,-0.5339,-0.5339,-0.5339,-0.5339,0,-0.5442,-0.5438,-0.5432,-0.5423,-0.5418,-0.5411,-0.5404,-0.5401,-0.5393,-0.5388,-0.538,-0.5374,-0.5363,-0.5355,-0.5346,-0.5341,-0.5339,-0.5338,-0.5337,-0.5338,-0.5341,-0.5339,-0.5347,-0.5338,-0.5338,-0.5338,-0.5338,-0.5338,-0.544,-0.5435,-0.5427,-0.5419,-0.5414,-0.5407,-0.5402,-0.5396,-0.5389,-0.538,-0.5376,-0.5367,-0.5359,-0.5347,-0.5342,-0.5335,-0.5335,-0.5333,-0.5333,-0.5333,-0.5333,-0.5341,-0.5333,-0.5333,-0.5333,-0.5333,-0.5333,0,-0.5436,-0.5431,-0.5423,-0.5414,-0.5408,-0.5405,-0.5397,-0.5392,-0.5385,-0.5377,-0.537,-0.536,-0.5352,-0.5344,-0.5335,-0.5331,-0.533,-0.5329,-0.533,-0.5328,-0.5333,-0.5335,-0.533,-0.533,-0.533,-0.533,-0.533,-0.533,-0.5434,-0.5425,-0.5421,-0.541,-0.5404,-0.5396,-0.5391,-0.5385,-0.5379,-0.5368,-0.5361,-0.5356,-0.5348,-0.5339,-0.5331,-0.5329,-0.5326,-0.5326,-0.5323,-0.5328,-0.5328,-0.5329,-0.533,-0.5325,-0.5325,-0.5319,-0.5319,-0.5319]},{"header":{"parameterUnit":"m.s-1","parameterCategory":1,"la1":30.2991,"la2":30.254,"lo1":-89.0895,"lo2":-89.0444,"dy":0.0017,"dx":0.0017,"nx":28,"ny":28,"refTime":"2024-08-19T21:00:00:Z","depth":0,"parameterNumber":3,"parameterNumberName":"V-component_of_WINDS"},"data":[0,0,0,0,0,0,0,0,0,0,0,0,0,0,0,0,0,0,0,0,0,0,0,0,0,0,0,0,0,0,0,0,0,0,0,0,0,0,0,0,0,0,0,0,0,0,0,0,0,0,0,0,0,0,0,0,0,0,-0.0329,-0.0329,0,-0.0336,-0.0336,-0.0336,-0.0344,-0.0344,-0.0344,-0.0344,-0.0354,-0.0354,-0.0354,0,0,0,0,0,0,0,0,0,0,0,0,0,-0.0328,-0.0328,-0.0329,-0.0329,-0.0329,-0.0336,-0.0336,-0.0336,-0.0344,-0.0344,-0.0344,-0.0344,-0.0354,-0.0354,-0.0354,0,0,0,0,0,0,0,0,0,0,0,0,0,-0.0331,-0.0328,-0.0329,-0.0334,-0.0334,-0.0336,-0.0336,-0.0336,-0.0344,-0.0344,-0.0344,-0.0344,-0.0354,-0.0354,-0.0354,-0.0353,0,0,-0.0355,-0.0355,0,0,0,0,0,0,0,0,-0.0331,-0.0331,-0.0333,-0.0333,-0.0334,-0.0339,-0.0339,-0.0342,-0.0344,-0.034,-0.0344,-0.0344,-0.0349,-0.035,-0.0351,-0.0353,-0.0354,-0.0355,-0.0355,-0.0355,-0.0356,0,0,0,0,0,0,0,-0.033,-0.0331,-0.0332,-0.0333,-0.0334,-0.0337,-0.0338,-0.034,-0.0344,-0.034,-0.0341,-0.0342,-0.0349,-0.0351,-0.0351,-0.0354,-0.0355,-0.0355,-0.0356,-0.0356,-0.036,-0.036,0,0,0,0,0,0,-0.0329,-0.033,-0.0332,-0.0332,-0.0333,-0.0337,-0.0338,-0.0337,-0.0344,-0.0345,-0.0341,-0.0342,-0.035,-0.0351,-0.0351,-0.0353,-0.0355,-0.0356,-0.0356,-0.036,-0.036,-0.036,0,0,0,0,0,0,-0.0329,-0.0329,-0.0331,-0.0331,-0.0332,-0.0337,-0.0336,-0.0337,-0.0338,-0.0344,-0.0346,-0.0341,-0.035,-0.0351,-0.0353,-0.0353,-0.0356,-0.0356,-0.036,-0.036,-0.036,-0.0353,0,0,0,0,0,0,-0.0329,-0.0329,-0.0327,-0.0331,-0.0332,-0.0331,-0.0336,-0.0337,-0.0338,-0.0339,-0.0345,-0.0346,-0.035,-0.0353,-0.0353,-0.0353,-0.0356,-0.036,-0.036,-0.036,-0.0354,-0.0353,-0.0353,0,0,0,0,0,-0.0329,-0.0324,-0.0327,-0.0327,-0.0329,-0.0331,-0.0332,-0.0336,-0.0338,-0.0338,-0.0342,-0.0346,-0.0353,-0.0353,-0.0354,-0.0354,-0.036,-0.036,-0.036,-0.0354,-0.0353,-0.0353,0,0,0,0,0,0,-0.032,-0.0325,-0.0327,-0.0324,-0.0327,-0.0332,-0.0331,-0.0335,-0.0337,-0.0338,-0.0344,-0.0346,-0.0348,-0.0351,-0.0351,-0.0355,-0.0357,-0.0357,-0.0352,-0.0352,-0.0351,-0.0351,-0.0356,0,0,0,0,0,-0.0318,-0.0317,-0.0322,-0.0319,-0.0321,-0.0326,-0.0327,-0.033,-0.0334,-0.0335,-0.034,-0.0344,-0.0348,-0.035,-0.0353,-0.0354,-0.0357,-0.0355,-0.0355,-0.0354,-0.0354,-0.0358,-0.0358,-0.036,-0.036,-0.036,0,0,-0.0313,-0.0316,-0.0315,-0.0318,-0.032,-0.0322,-0.0327,-0.0327,-0.0329,-0.0335,-0.0338,-0.0342,-0.0348,-0.035,-0.0351,-0.0353,-0.0355,-0.0354,-0.0354,-0.0354,-0.0358,-0.0358,-0.0358,-0.036,-0.036,-0.036,0,0,-0.0305,-0.0306,-0.0305,-0.0308,-0.0312,-0.0316,-0.0316,-0.0321,-0.0324,-0.0327,-0.0333,-0.0336,-0.0341,-0.0346,-0.0349,-0.0347,-0.0352,-0.0348,-0.0346,-0.035,-0.035,-0.035,-0.0351,-0.0351,-0.0348,-0.0348,-0.0348,0,-0.0299,-0.03,-0.0304,-0.0305,-0.0308,-0.0314,-0.0314,-0.0317,-0.0323,-0.0325,-0.0327,-0.0336,-0.034,-0.0345,-0.0345,-0.0346,-0.0348,-0.0347,-0.0349,-0.0349,-0.0349,-0.0351,-0.0351,-0.0348,-0.0348,-0.0348,-0.0348,0,-0.0293,-0.0294,-0.0293,-0.0299,-0.0301,-0.0302,-0.0308,-0.031,-0.0315,-0.0319,-0.0324,-0.0329,-0.0335,-0.0337,-0.034,-0.0344,-0.0345,-0.0347,-0.035,-0.0349,-0.035,-0.0351,-0.0348,-0.0348,-0.0348,-0.0348,0,0,-0.0279,-0.0288,-0.0288,-0.0292,-0.0298,-0.03,-0.0303,-0.0308,-0.0311,-0.0316,-0.032,-0.0326,-0.0329,-0.0333,-0.0338,-0.0341,-0.0343,-0.0344,-0.0344,-0.0345,-0.0349,-0.0348,-0.0348,-0.0346,-0.0346,-0.0346,-0.035,0,-0.0273,-0.0277,-0.0282,-0.0285,-0.0288,-0.0295,-0.0298,-0.0304,-0.0309,-0.0314,-0.032,-0.0325,-0.0328,-0.0331,-0.0334,-0.0341,-0.0344,-0.0341,-0.0351,-0.0352,-0.035,-0.0349,-0.0347,-0.035,-0.035,-0.035,-0.035,0,-0.0267,-0.0271,-0.0274,-0.0284,-0.0285,-0.0287,-0.0295,-0.0298,-0.0306,-0.031,-0.0316,-0.0321,-0.0327,-0.0329,-0.0339,-0.0337,-0.0342,-0.0347,-0.0347,-0.0349,-0.0351,-0.0352,-0.0351,-0.0352,-0.0351,-0.0351,-0.0351,0,-0.0259,-0.0265,-0.0269,-0.0272,-0.0282,-0.0284,-0.0288,-0.0296,-0.03,-0.0308,-0.0311,-0.0319,-0.0323,-0.033,-0.0339,-0.034,-0.0349,-0.0351,-0.0354,-0.0354,-0.0356,-0.0356,-0.0357,-0.0357,-0.0357,-0.0357,-0.0357,0,-0.0253,-0.0255,-0.0265,-0.0267,-0.0271,-0.0279,-0.0283,-0.0288,-0.0296,-0.0301,-0.0308,-0.0313,-0.0324,-0.0331,-0.0338,-0.0347,-0.0348,-0.0353,-0.0356,-0.0353,-0.0353,-0.0357,-0.0357,-0.0358,-0.0357,-0.0357,-0.0357,0,-0.0243,-0.025,-0.0255,-0.0265,-0.0268,-0.027,-0.028,-0.0284,-0.029,-0.0297,-0.0299,-0.031,-0.0319,-0.0329,-0.0341,-0.0346,-0.0355,-0.0357,-0.0352,-0.0353,-0.0356,-0.0356,-0.036,-0.0362,-0.036,-0.036,-0.036,0,-0.024,-0.0241,-0.0252,-0.0256,-0.026,-0.0266,-0.0271,-0.028,-0.0285,-0.0296,-0.0299,-0.0308,-0.0316,-0.0331,-0.0341,-0.0352,-0.0355,-0.0356,-0.0356,-0.0355,-0.0357,-0.0357,-0.0359,-0.0355,-0.0355,-0.0355,-0.0355,0,-0.0233,-0.0237,-0.0242,-0.0251,-0.0256,-0.0263,-0.027,-0.0273,-0.0284,-0.029,-0.0299,-0.0305,-0.0319,-0.0329,-0.0341,-0.0348,-0.0355,-0.0355,-0.0357,-0.0355,-0.0352,-0.0356,-0.0352,-0.0355,-0.0355,-0.0355,-0.0355,-0.0355,-0.0227,-0.023,-0.0239,-0.0246,-0.0253,-0.026,-0.0265,-0.0273,-0.028,-0.0291,-0.0297,-0.0307,-0.0318,-0.0335,-0.0342,-0.0352,-0.0353,-0.0355,-0.0356,-0.0356,-0.0357,-0.035,-0.0354,-0.0354,-0.0354,-0.0354,-0.0354,0,-0.0222,-0.0229,-0.0236,-0.0246,-0.0252,-0.0257,-0.0266,-0.0272,-0.028,-0.029,-0.0298,-0.0311,-0.0322,-0.0333,-0.0346,-0.0351,-0.0355,-0.0354,-0.0354,-0.0357,-0.0354,-0.0352,-0.0351,-0.0351,-0.0351,-0.0351,-0.0351,-0.0351,-0.0221,-0.0227,-0.0233,-0.0244,-0.0251,-0.026,-0.0265,-0.0273,-0.0281,-0.0294,-0.0303,-0.0311,-0.0322,-0.0336,-0.0347,-0.0351,-0.0356,-0.0355,-0.0359,-0.0356,-0.0356,-0.0356,-0.0355,-0.0355,-0.0355,-0.0361,-0.0361,-0.0361]}]]